FW6054 Weather Reports


time (UTC)temp
F
wind
direction
speed
knots
gust
knots
rain 1hr
in
rain 24hr
in
rain mn
in
humidity
%
barometer
mb
20260510104558 52 175 0.9 4.3 0.00 0.28 0.00 92 1011.1
20260510103053 52 0 0.0 5.2 0.00 0.28 0.00 92 1010.6
20260510101552 52 0 0.9 4.3 0.00 0.28 0.00 92 1010.3
20260510100051 52 173 0.9 4.3 0.00 0.28 0.00 92 1010.0
20260510094552 52 194 0.9 3.5 0.00 0.28 0.00 92 1009.9
20260510093104 52 164 0.9 4.3 0.00 0.28 0.00 92 1009.8
20260510091557 52 172 0.9 4.3 0.00 0.28 0.00 92 1009.4
20260510090052 52 130 0.9 3.5 0.00 0.28 0.00 92 1009.4
20260510084554 52 118 0.0 3.5 0.00 0.28 0.00 93 1009.3
20260510083053 52 190 0.9 3.5 0.00 0.28 0.00 93 1009.5
20260510081621 52 0 0.0 3.5 0.00 0.28 0.00 93 1009.3
20260510080051 52 0 0.9 5.2 0.00 0.28 0.00 93 1009.3
20260510074553 52 219 0.9 3.5 0.00 0.28 0.00 92 1009.2
20260510073104 52 0 0.0 2.6 0.00 0.28 0.00 92 1009.7
20260510071558 52 136 0.9 4.3 0.00 0.28 0.00 92 1010.0
20260510070058 52 0 0.9 4.3 0.00 0.28 0.00 92 1010.1
20260510064556 52 180 0.9 4.3 0.00 0.28 0.00 92 1010.2
20260510063055 52 131 0.0 2.6 0.00 0.28 0.00 92 1010.1
20260510061551 52 182 0.0 2.6 0.00 0.28 0.00 91 1010.0
20260510060054 52 0 0.9 3.5 0.00 0.28 0.00 91 1009.6
20260510054550 52 0 0.0 2.6 0.00 0.28 0.00 91 1009.6
20260510053106 52 151 0.0 3.5 0.00 0.28 0.00 91 1009.8
20260510051601 52 142 0.9 2.6 0.00 0.28 0.00 91 1009.9
20260510050100 52 0 0.9 5.2 0.00 0.28 0.00 91 1009.7
20260510044604 52 0 0.0 2.6 0.00 0.28 0.00 91 1009.7
20260510043101 52 0 0.0 3.5 0.00 0.28 0.00 91 1009.7
20260510041602 52 232 0.9 3.5 0.00 0.28 0.00 91 1009.7
20260510040056 52 0 0.9 3.5 0.00 0.28 0.00 91 1009.6
20260510034557 52 0 0.0 1.7 0.00 0.28 0.28 90 1009.8
20260510033108 53 0 0.0 3.5 0.00 0.28 0.28 89 1009.5
20260510031555 53 159 0.0 4.3 0.00 0.28 0.28 89 1009.4
20260510030110 53 0 0.0 3.5 0.00 0.28 0.28 88 1009.4
20260510024553 53 0 0.0 2.6 0.00 0.28 0.28 88 1009.6
20260510023055 54 0 0.0 1.7 0.00 0.28 0.28 89 1009.6
20260510021552 54 138 0.9 4.3 0.00 0.28 0.28 88 1009.6
20260510020051 54 167 0.0 1.7 0.00 0.28 0.28 89 1009.7
20260510014558 54 0 0.0 1.7 0.00 0.28 0.28 89 1009.8
20260510013055 54 0 0.0 1.7 0.00 0.28 0.28 89 1009.6
20260510011552 54 153 0.0 3.5 0.00 0.28 0.28 89 1009.6
20260510010054 54 0 0.0 0.9 0.00 0.28 0.28 89 1009.7
20260510004553 54 0 0.0 0.9 0.00 0.28 0.28 89 1009.5
20260510003101 54 0 0.0 3.5 0.00 0.28 0.28 89 1009.4
20260510001556 54 0 0.0 3.5 0.00 0.28 0.28 89 1009.1
20260510000057 54 0 0.0 3.5 0.00 0.28 0.28 89 1008.8
20260509234556 54 0 0.9 3.5 0.00 0.28 0.28 89 1008.8
20260509233101 55 157 0.9 3.5 0.00 0.28 0.28 89 1008.5
20260509231555 55 0 0.9 7.0 0.00 0.28 0.28 89 1008.3
20260509230059 55 167 0.9 7.0 0.00 0.28 0.28 89 1008.1
20260509224553 55 179 0.9 7.0 0.00 0.28 0.28 89 1008.4
20260509223100 55 193 0.9 6.1 0.00 0.28 0.28 91 1008.4
20260509221553 55 186 0.0 4.3 0.00 0.28 0.28 92 1008.5
20260509220051 54 209 0.9 7.0 0.00 0.28 0.28 93 1008.5
20260509214553 54 211 0.9 4.3 0.00 0.28 0.28 94 1008.6
20260509213055 54 143 0.9 4.3 0.00 0.28 0.28 94 1008.7
20260509211553 54 175 0.9 6.1 0.00 0.28 0.28 94 1008.6
20260509210055 53 236 0.9 4.3 0.00 0.28 0.28 95 1008.9
20260509204556 53 178 1.7 6.1 0.00 0.28 0.28 95 1009.0
20260509203106 53 140 0.9 4.3 0.00 0.28 0.28 95 1009.2
20260509201601 53 0 0.9 5.2 0.00 0.28 0.28 95 1009.3
20260509200106 52 180 0.9 4.3 0.01 0.28 0.28 95 1009.5
20260509194554 52 0 0.0 3.5 0.02 0.28 0.28 95 1009.8
20260509193112 51 180 0.0 3.5 0.03 0.28 0.28 95 1009.9
20260509191600 51 223 0.0 3.5 0.03 0.28 0.28 95 1010.0
20260509190059 51 0 0.0 4.3 0.03 0.27 0.27 94 1010.1
20260509184608 51 175 0.9 4.3 0.02 0.26 0.26 94 1010.3
20260509183057 50 157 0.0 4.3 0.01 0.25 0.25 95 1010.2
20260509181557 50 190 0.0 3.5 0.02 0.25 0.25 94 1010.3
20260509180055 50 195 0.0 3.5 0.01 0.24 0.24 95 1010.2
20260509174557 49 178 0.0 3.5 0.02 0.24 0.24 95 1010.4
20260509173106 49 186 0.0 4.3 0.02 0.24 0.24 94 1010.6
20260509171615 48 0 0.0 2.6 0.01 0.23 0.23 94 1010.8
20260509164553 48 0 0.0 2.6 0.02 0.22 0.22 94 1010.9
20260509163110 48 0 0.0 1.7 0.02 0.22 0.22 94 1011.1
20260509161554 47 0 0.0 3.5 0.03 0.22 0.22 94 1011.5
20260509160052 47 0 0.0 2.6 0.03 0.21 0.21 94 1011.8
20260509154552 47 184 0.0 2.6 0.04 0.20 0.20 94 1012.0
20260509153052 47 165 0.0 3.5 0.06 0.20 0.20 94 1012.2
20260509151552 46 180 0.0 2.6 0.07 0.19 0.19 94 1012.5
20260509144651 46 0 0.9 3.5 0.07 0.16 0.16 94 1012.6
20260509143054 46 198 0.0 2.6 0.07 0.14 0.14 94 1012.5
20260509141552 45 196 0.0 1.7 0.05 0.12 0.12 94 1012.4
20260509140051 45 0 0.0 2.6 0.03 0.10 0.10 93 1012.3
20260509134551 45 161 0.0 3.5 0.03 0.09 0.09 93 1012.2
20260509133052 45 0 0.0 0.9 0.02 0.07 0.07 93 1012.2
20260509131553 45 0 0.0 1.7 0.03 0.07 0.07 93 1012.3
20260509124610 45 0 0.0 1.7 0.05 0.06 0.06 92 1012.3
20260509123058 45 0 0.0 1.7 0.04 0.05 0.05 92 1012.6
20260509121551 44 0 0.0 2.6 0.03 0.04 0.04 92 1012.3
20260509120106 44 171 0.0 3.5 0.01 0.02 0.02 92 1012.7
20260509114554 44 163 0.0 2.6 0.00 0.01 0.01 92 1012.6
20260509113056 44 132 0.0 2.6 0.00 0.01 0.01 91 1012.5
20260509111555 44 0 0.0 1.7 0.00 0.01 0.01 91 1012.4
20260509110053 43 0 0.0 1.7 0.01 0.01 0.01 90 1012.4